Wind_Speed
14 14 14 15 14 15 15 15 16 16 18 19 20 20 21 21 21 21 20 19 18 19 19 19 19 19 19 19 18 17 16 16 15 13 14 14 13 14 15 15 15 16 17 16
14 15 15 15 16 15 15 15 16 17 18 18 19 20 21 20 21 20 20 19 18 19 18 18 19 19 19 18 17 17 16 15 13 12 13 13 13 13 15 15 17 18 18 17
15 14 15 15 16 17 16 15 16 17 18 19 20 21 21 20 20 19 19 18 18 18 19 19 18 19 18 18 17 16 16 13 12 13 13 14 13 14 15 16 17 18 18 18
16 15 15 16 17 17 17 16 16 18 18 19 20 21 21 20 19 18 18 18 18 18 18 18 18 18 18 17 16 15 14 13 12 13 13 13 14 14 16 17 17 17 18 18
16 15 17 17 17 18 18 17 17 19 19 20 20 21 20 19 18 18 18 17 18 19 18 18 18 17 17 17 16 14 14 13 13 13 13 14 15 16 16 17 17 17 18 18
17 17 17 18 18 19 19 19 19 19 20 21 21 21 20 19 18 18 18 17 17 17 17 17 17 17 16 16 15 14 13 13 13 13 13 14 15 16 16 16 17 18 18 19
18 19 19 20 19 19 20 21 20 20 21 21 21 21 20 19 18 18 18 18 17 16 16 16 16 16 15 15 15 14 13 13 14 13 14 15 15 16 17 17 18 18 19 20
20 20 19 22 21 21 22 21 21 21 21 21 21 20 20 19 18 18 17 17 16 16 16 16 15 15 15 15 14 14 13 13 14 14 14 15 16 17 18 18 18 19 19 20
22 21 21 22 22 22 22 22 22 21 20 21 21 20 20 19 18 17 16 15 15 15 15 15 15 14 14 15 14 13 13 13 14 14 15 16 16 17 18 18 19 19 19 20
23 23 23 23 23 22 22 22 22 22 21 22 22 21 20 19 18 17 16 15 14 14 15 14 14 14 14 14 13 13 14 14 14 14 15 16 17 17 18 18 18 18 19 20
25 24 23 23 23 22 22 23 23 23 22 22 22 22 21 20 18 17 16 15 15 14 14 14 14 14 14 14 13 13 14 15 14 14 14 15 16 16 17 17 17 18 19 20
25 25 24 24 24 24 24 24 24 24 23 23 23 23 22 20 19 18 16 15 15 15 14 14 14 14 14 13 13 13 14 14 14 13 14 14 15 15 16 17 17 19 20 21
26 26 26 25 25 25 25 25 25 25 24 24 24 23 22 21 19 18 16 16 15 15 15 15 15 14 13 13 13 13 14 14 14 14 15 14 15 15 15 16 18 19 20 21
28 27 27 27 27 26 26 26 26 26 25 25 24 23 22 21 20 18 17 17 16 16 16 15 15 14 14 14 13 13 14 14 14 14 14 14 14 15 16 17 18 19 20 21
28 28 28 28 28 27 27 27 26 26 25 25 24 23 22 21 20 19 18 18 17 16 16 15 15 14 14 14 14 13 14 14 14 13 14 14 14 15 16 17 18 19 20 21
28 28 28 28 28 27 27 26 26 25 25 24 24 23 23 21 20 19 18 18 17 17 15 15 15 15 14 14 14 13 13 13 13 13 14 14 15 15 16 17 18 20 20 21
29 29 28 27 27 26 26 26 25 25 25 24 23 23 22 20 20 19 19 18 18 17 16 15 15 14 14 14 14 13 13 12 12 13 14 15 15 15 16 17 18 19 20 21
29 29 29 28 27 27 26 26 26 25 24 23 23 22 21 21 20 20 20 18 17 16 16 15 14 14 14 13 13 13 12 13 13 13 14 14 15 15 16 16 17 18 19 20
29 29 28 28 28 27 27 26 25 25 24 23 22 22 21 21 21 20 20 18 17 17 17 16 15 14 14 14 13 13 13 12 12 13 13 14 14 15 16 16 17 17 19 20
29 29 28 28 28 28 27 26 26 25 25 24 23 23 21 21 21 21 20 19 18 18 18 17 16 15 15 15 14 13 13 12 12 12 13 13 14 15 16 16 16 18 20 21
29 29 29 28 28 28 28 27 26 26 25 25 24 23 22 22 22 21 20 19 19 19 18 18 17 16 16 15 15 14 13 13 12 13 12 13 14 15 16 16 16 18 19 21
29 29 29 29 28 28 28 28 27 27 26 25 25 24 23 23 22 22 21 21 20 19 19 18 18 17 17 16 16 15 14 14 13 13 13 14 14 15 16 16 16 17 19 21
30 30 29 29 29 29 28 28 28 28 27 26 26 25 24 24 23 23 22 22 21 20 19 18 18 17 17 17 16 16 15 15 14 14 15 15 15 15 16 16 17 18 19 21
31 30 30 29 29 29 29 28 28 28 27 27 26 25 25 24 24 23 23 23 22 22 21 20 19 19 18 17 17 17 17 16 16 16 15 15 15 15 16 16 18 19 20 21
31 30 29 28 28 29 29 28 28 28 27 26 26 25 25 24 24 24 23 23 23 23 22 21 20 20 20 19 19 18 18 18 17 17 15 15 16 16 16 17 18 19 20 21
32 31 30 30 29 29 29 29 28 27 27 27 26 25 24 24 25 25 24 24 24 23 23 22 21 20 20 20 19 18 18 18 17 16 16 16 16 17 16 17 19 20 20 21
31 31 30 30 29 29 29 29 29 28 27 26 25 25 25 25 25 25 24 24 24 24 23 22 21 21 20 20 19 18 18 17 17 17 17 17 17 17 17 18 19 20 20 20
Wind_Direction
305 306 304 302 304 306 309 311 312 317 317 319 322 325 327 329 330 330 330 330 330 332 333 333 335 336 334 333 334 336 336 339 337 334 335 333 332 331 332 334 331 330 330 329
308 307 304 302 304 305 305 306 309 313 316 319 324 325 326 327 325 327 328 328 329 331 332 333 333 334 334 333 333 335 336 339 342 341 339 336 336 335 335 334 332 332 331 330
311 308 305 305 307 308 308 307 307 310 313 317 321 323 324 323 323 325 328 329 331 333 333 334 335 334 333 332 333 336 339 339 341 341 340 340 339 338 338 337 337 338 338 337
308 307 303 306 306 307 307 304 306 311 313 317 321 324 324 322 321 322 324 325 329 333 332 333 334 335 336 336 335 335 340 340 341 345 344 342 340 340 338 337 338 337 340 341
304 302 301 305 305 306 305 302 303 306 311 315 317 321 322 321 320 322 323 323 326 328 329 331 331 332 336 338 338 335 336 339 342 343 343 341 340 340 339 339 339 340 341 342
302 300 297 303 302 303 301 300 303 307 310 312 314 317 319 318 318 320 321 321 321 325 328 328 329 331 332 336 338 339 337 338 340 341 342 341 343 343 343 342 341 341 341 341
299 298 298 300 301 299 298 299 302 304 306 308 312 316 316 316 315 316 317 318 319 322 326 327 327 329 331 335 337 338 337 339 341 341 341 341 341 342 343 342 340 339 338 340
297 297 296 296 296 295 296 297 299 301 303 304 307 311 313 312 311 311 313 314 317 319 322 325 326 327 329 334 336 338 338 338 339 340 341 341 339 340 342 342 340 340 340 341
293 293 293 293 293 295 296 293 295 297 299 301 304 307 309 309 307 310 311 310 314 316 319 322 324 325 327 331 332 334 336 336 337 337 337 338 338 340 342 341 341 342 343 344
292 290 289 290 291 293 293 292 293 295 298 300 302 304 305 306 305 307 308 308 310 313 316 318 321 322 324 326 327 328 331 333 332 333 335 338 339 341 341 342 343 343 344 346
290 290 289 289 290 292 293 293 293 293 295 297 299 300 303 305 304 304 306 307 308 310 312 314 316 318 322 323 325 326 329 331 329 329 333 337 340 342 343 345 346 345 345 347
287 288 287 287 289 291 292 293 293 292 292 294 295 297 299 300 301 301 301 301 303 305 307 310 313 314 317 320 320 322 327 331 332 332 334 338 342 342 344 345 345 345 345 346
284 284 284 286 287 289 290 291 291 291 292 292 291 292 293 295 297 297 295 295 298 301 303 306 310 312 315 317 317 319 324 328 330 332 334 337 340 342 344 345 345 346 346 346
282 282 282 283 285 286 287 288 289 289 289 290 289 289 289 291 293 293 292 293 294 297 299 302 305 307 312 315 314 316 321 325 328 331 332 335 337 340 341 342 344 346 345 346
282 282 283 284 284 284 285 286 287 287 287 287 287 286 286 287 288 289 289 289 290 292 295 298 300 301 306 308 309 311 316 321 325 330 331 332 334 338 339 341 344 345 345 347
280 282 283 283 283 283 283 285 285 285 285 285 284 284 283 283 285 286 286 286 286 288 290 293 296 298 301 303 303 305 310 316 321 326 328 329 332 335 337 340 342 344 346 347
279 279 280 280 280 281 282 283 283 283 284 284 283 282 280 280 281 282 282 282 283 283 284 287 289 293 296 299 300 301 306 310 315 321 324 327 330 332 334 336 339 342 344 347
278 278 278 276 276 279 280 280 282 282 282 282 281 280 278 277 277 279 280 278 278 279 280 283 285 290 292 294 298 300 303 307 310 316 320 324 327 330 332 335 337 340 343 345
276 276 276 274 274 276 277 278 278 279 279 280 281 282 280 277 276 275 276 273 273 275 277 279 280 284 287 288 292 296 300 303 307 312 316 321 325 328 330 332 335 338 341 342
277 275 274 273 272 274 275 275 274 276 276 277 279 280 279 277 275 274 272 271 270 271 274 274 274 278 280 282 286 291 295 297 301 306 311 317 322 326 328 330 332 334 338 340
275 274 273 271 272 274 274 273 273 274 275 275 276 277 276 274 272 271 270 269 269 269 272 270 270 273 275 277 280 285 290 292 297 302 307 311 317 322 327 328 329 332 336 339
272 272 272 272 272 273 273 272 272 272 273 272 272 273 272 271 270 268 267 267 267 267 270 268 268 269 270 272 275 280 285 287 290 295 300 306 310 315 320 323 326 330 333 335
271 271 271 271 273 271 270 271 270 270 270 271 271 271 269 268 268 267 265 264 265 266 267 267 267 267 268 270 273 277 279 281 284 290 297 303 306 310 315 319 324 328 331 332
269 268 268 269 270 269 268 268 269 269 269 270 270 269 268 266 266 266 265 263 263 264 264 266 265 263 265 268 271 274 276 277 280 284 289 295 300 306 311 316 321 325 328 331
267 266 265 267 269 268 267 267 268 267 267 267 269 269 267 265 264 263 261 260 263 264 263 263 262 262 264 267 269 271 273 273 276 278 282 289 295 302 308 314 318 322 326 330
264 263 263 263 266 266 264 265 267 266 265 265 266 266 264 263 263 262 259 259 259 260 261 261 260 260 263 265 267 268 269 271 274 278 283 289 294 299 305 310 316 321 324 327
264 263 264 264 265 265 265 264 264 264 265 265 265 265 264 263 263 262 259 258 256 257 259 260 260 261 262 263 263 263 265 269 272 277 282 286 290 295 300 306 312 317 321 324
Height
5828 5826 5825 5823 5821 5819 5817 5815 5813 5810 5807 5804 5800 5797 5794 5792 5788 5784 5781 5777 5774 5771 5767 5764 5761 5757 5753 5750 5747 5744 5741 5739 5736 5733 5732 5730 5728 5726 5723 5720 5718 5715 5712 5709
5825 5823 5821 5820 5818 5816 5814 5812 5810 5808 5805 5801 5798 5795 5792 5789 5786 5782 5779 5776 5772 5769 5766 5763 5759 5756 5752 5749 5746 5743 5740 5738 5734 5732 5731 5729 5727 5724 5722 5719 5716 5713 5709 5706
5821 5819 5817 5816 5815 5813 5810 5808 5807 5805 5802 5798 5795 5792 5789 5786 5783 5780 5777 5774 5771 5768 5764 5761 5758 5755 5751 5748 5745 5742 5739 5736 5734 5732 5730 5728 5726 5723 5720 5717 5714 5711 5707 5704
5818 5816 5815 5816 5811 5809 5807 5805 5803 5800 5798 5795 5792 5789 5786 5782 5780 5777 5775 5772 5769 5766 5763 5760 5757 5754 5750 5747 5744 5741 5738 5736 5734 5731 5729 5727 5725 5722 5719 5716 5713 5709 5706 5702
5814 5812 5811 5810 5808 5805 5803 5801 5800 5797 5794 5792 5789 5786 5783 5780 5777 5775 5772 5770 5767 5764 5761 5759 5756 5752 5749 5746 5743 5740 5738 5735 5733 5731 5729 5726 5724 5721 5717 5714 5711 5707 5704 5700
5810 5808 5807 5807 5804 5801 5800 5797 5796 5793 5791 5788 5785 5783 5781 5777 5774 5772 5770 5767 5765 5762 5759 5757 5754 5751 5748 5745 5742 5739 5737 5734 5732 5730 5727 5725 5722 5719 5716 5712 5709 5705 5702 5698
5806 5804 5802 5801 5799 5798 5797 5795 5791 5789 5786 5784 5782 5780 5777 5774 5771 5769 5767 5764 5762 5760 5757 5754 5752 5749 5746 5744 5741 5738 5736 5733 5731 5728 5726 5723 5720 5717 5713 5710 5707 5703 5699 5695
5802 5800 5800 5796 5794 5793 5792 5789 5787 5785 5783 5780 5778 5776 5773 5770 5768 5766 5763 5761 5759 5757 5755 5752 5750 5747 5745 5742 5740 5737 5734 5732 5729 5727 5724 5721 5718 5715 5711 5708 5704 5701 5697 5693
5798 5797 5794 5791 5789 5788 5786 5784 5782 5781 5778 5776 5774 5772 5770 5767 5765 5762 5760 5758 5756 5754 5752 5750 5747 5745 5743 5740 5738 5735 5733 5731 5728 5725 5722 5719 5716 5713 5709 5706 5702 5698 5694 5691
5791 5790 5788 5786 5784 5783 5781 5779 5777 5776 5774 5772 5770 5768 5766 5763 5761 5759 5757 5755 5753 5751 5749 5747 5745 5743 5741 5738 5736 5734 5731 5729 5726 5723 5720 5717 5714 5711 5707 5704 5700 5696 5692 5688
5785 5784 5782 5780 5779 5777 5775 5774 5772 5771 5769 5767 5765 5764 5761 5759 5757 5755 5753 5752 5750 5748 5747 5745 5743 5741 5738 5736 5734 5731 5729 5726 5724 5721 5718 5715 5712 5709 5705 5702 5698 5694 5690 5686
5779 5778 5776 5775 5773 5771 5770 5768 5767 5765 5763 5762 5760 5758 5757 5755 5753 5752 5750 5748 5747 5745 5744 5742 5740 5738 5736 5734 5731 5729 5727 5724 5722 5719 5716 5714 5711 5707 5704 5700 5696 5693 5689 5684
5772 5770 5769 5768 5767 5765 5764 5762 5760 5759 5757 5756 5754 5753 5751 5750 5749 5747 5746 5745 5743 5742 5740 5739 5737 5735 5733 5731 5729 5727 5724 5722 5719 5717 5714 5711 5709 5706 5703 5699 5695 5691 5687 5683
5764 5763 5762 5761 5760 5759 5757 5755 5754 5752 5751 5749 5748 5747 5746 5745 5744 5743 5742 5740 5739 5738 5736 5735 5733 5731 5730 5728 5726 5724 5722 5720 5717 5715 5712 5709 5706 5703 5700 5697 5694 5690 5686 5681
5756 5755 5754 5753 5752 5751 5749 5748 5747 5745 5744 5743 5742 5741 5740 5739 5738 5737 5737 5736 5735 5734 5732 5731 5730 5728 5726 5725 5723 5721 5719 5717 5715 5712 5710 5707 5704 5701 5698 5695 5692 5688 5684 5680
5748 5747 5746 5745 5744 5743 5742 5741 5739 5738 5737 5736 5735 5734 5733 5733 5732 5732 5731 5731 5730 5729 5728 5727 5726 5724 5723 5721 5719 5718 5716 5714 5712 5710 5708 5705 5703 5700 5697 5694 5690 5687 5683 5679
5739 5738 5738 5737 5736 5735 5734 5733 5732 5731 5730 5729 5728 5727 5727 5727 5726 5726 5726 5725 5725 5724 5724 5723 5722 5720 5719 5717 5716 5715 5713 5711 5710 5708 5705 5703 5700 5698 5695 5692 5688 5685 5681 5677
5730 5729 5729 5728 5728 5727 5726 5726 5725 5724 5723 5722 5721 5721 5720 5720 5720 5720 5720 5719 5719 5719 5719 5718 5717 5716 5715 5714 5712 5711 5710 5708 5706 5705 5703 5701 5698 5695 5693 5690 5687 5683 5679 5676
5721 5720 5720 5720 5719 5719 5718 5718 5717 5717 5716 5715 5715 5714 5714 5714 5714 5713 5713 5713 5713 5713 5713 5713 5712 5712 5711 5710 5709 5708 5706 5705 5703 5702 5700 5698 5695 5693 5690 5688 5685 5681 5678 5674
5712 5711 5711 5711 5711 5711 5710 5710 5710 5709 5709 5708 5708 5708 5707 5707 5707 5707 5707 5707 5707 5707 5707 5707 5707 5707 5706 5706 5705 5704 5702 5701 5700 5698 5697 5695 5693 5690 5688 5685 5682 5679 5675 5672
5703 5702 5702 5702 5702 5702 5702 5702 5701 5701 5701 5701 5701 5701 5701 5701 5701 5700 5701 5701 5701 5701 5701 5702 5702 5702 5701 5701 5700 5699 5698 5697 5696 5695 5693 5692 5690 5687 5685 5683 5680 5677 5673 5669
5693 5693 5693 5693 5693 5694 5693 5693 5693 5694 5693 5693 5693 5693 5693 5694 5694 5694 5694 5695 5695 5695 5695 5696 5696 5696 5696 5695 5695 5695 5694 5693 5692 5691 5690 5688 5687 5685 5682 5680 5677 5674 5670 5667
5683 5683 5683 5684 5684 5685 5685 5685 5685 5685 5685 5685 5686 5686 5686 5686 5686 5687 5687 5688 5688 5689 5689 5690 5690 5690 5690 5690 5690 5690 5689 5688 5688 5687 5686 5684 5683 5681 5679 5676 5674 5671 5667 5664
5674 5674 5674 5675 5675 5676 5676 5676 5676 5677 5677 5677 5677 5678 5678 5678 5679 5679 5680 5681 5682 5682 5683 5683 5684 5684 5684 5684 5684 5684 5684 5683 5682 5682 5681 5680 5678 5677 5675 5673 5670 5667 5664 5661
5663 5664 5664 5665 5666 5666 5667 5667 5668 5668 5668 5669 5669 5669 5670 5670 5671 5672 5672 5673 5674 5675 5676 5676 5677 5677 5677 5678 5678 5678 5678 5677 5677 5677 5676 5675 5674 5672 5671 5669 5667 5664 5661 5657
5653 5654 5655 5655 5656 5657 5657 5658 5659 5659 5659 5660 5660 5661 5661 5662 5663 5663 5664 5665 5666 5667 5668 5669 5670 5670 5670 5671 5671 5671 5671 5671 5671 5671 5670 5670 5669 5667 5666 5664 5662 5660 5656 5653
5643 5643 5644 5645 5647 5647 5648 5648 5649 5650 5651 5651 5652 5653 5653 5654 5654 5655 5656 5657 5658 5659 5660 5661 5662 5663 5663 5664 5664 5664 5665 5665 5665 5665 5665 5664 5663 5662 5661 5659 5657 5655 5652 5649